Weather History for Sexton Summit, OR

Change the Weather History Date:

Sunday, November 3, 2013

  Actual Average Record
Temperature  
Mean Temperature 32 °F -  
Max Temperature 36 °F 47 °F 70 °F (2010)
Min Temperature 30 °F 37 °F 28 °F (2003)
Degree Days  
Heating Degree Days 32    
Moisture  
Dew Point 33 °F    
Average Humidity 99    
Maximum Humidity 100    
Minimum Humidity 96    
Precipitation  
Precipitation 0.03 in - - ()
Sea Level Pressure  
Sea Level Pressure 30.14 in    
Wind  
Wind Speed 3 mph (NNW)    
Max Wind Speed 7 mph    
Max Gust Speed -    
Visibility 2 miles    
Events Fog , Snow    
Averages and records for this station are not official NWS values.
T = Trace of Precipitation, MM = Missing Value Source: NWS Daily Summary

Daily Weather History Graph

Daily Weather History Graph

Search for Another Location

Airport:

Trip Planner

Search our weather history database for the weather conditions in past years. The results will help you decide how hot, cold, wet, or windy it might be!

Date:

Astronomy

Nov. 03, 2013 Rise Set
Actual Time 6:50 AM PST 5:03 PM PST
Civil Twilight 6:20 AM PST 5:32 PM PST
Nautical Twilight 5:47 AM PST 6:06 PM PST
Astronomical Twilight 5:14 AM PST 6:39 PM PST
Moon 7:00 AM PST (11/3) 5:21 PM PST (11/3)
Length of Visible Light 11h 12m
Length of Day
10h 13m
New Moon, 0% of the Moon is Illuminated
Nov 3
New Moon
Nov 9
First Quarter
Nov 17
Full
Nov 25
Last Quarter
Dec 2
New

Hourly Weather History & Observations

Time (PST) Temp. Windchill Dew Point Humidity Pressure Visibility Wind Dir Wind Speed Gust Speed Precip Events Conditions
12:33 AM 32.0 °F 26.4 °F 30.9 °F 96% 30.11 in 0.5 mi NW 5.8 mph - 0.00 in Fog Fog
12:42 AM 30.9 °F 25.2 °F 30.9 °F 100% 30.11 in 0.8 mi Variable 5.8 mph - 0.00 in   Mist
12:56 AM 32.0 °F 26.4 °F 32.0 °F 100% 30.16 in 0.2 mi Variable 5.8 mph - 0.00 in Fog Fog
1:04 AM 32.0 °F 26.4 °F 32.0 °F 100% 30.11 in 0.5 mi NW 5.8 mph - N/A Fog Fog
1:34 AM 32.0 °F 26.4 °F 32.0 °F 100% 30.12 in 0.8 mi Variable 5.8 mph - N/A   Overcast
1:41 AM 32.0 °F 26.4 °F 32.0 °F 100% 30.12 in 0.5 mi NNW 5.8 mph - N/A Fog Fog
1:56 AM 32.0 °F 26.4 °F 32.0 °F 100% 30.17 in 0.5 mi Variable 5.8 mph - N/A Fog Fog
1:09 AM 32.0 °F 26.4 °F 32.0 °F 100% 30.12 in 0.5 mi NNW 5.8 mph - N/A Fog Fog
1:12 AM 32.0 °F 26.4 °F 32.0 °F 100% 30.12 in 0.5 mi Variable 5.8 mph - N/A Fog Fog
1:21 AM 32.0 °F - 32.0 °F 100% 30.13 in 0.8 mi Calm Calm - N/A   Overcast
1:46 AM 32.0 °F 27.5 °F 32.0 °F 100% 30.12 in 0.2 mi Variable 4.6 mph - N/A Fog Fog
1:56 AM 32.0 °F 27.5 °F 32.0 °F 100% 30.18 in 0.2 mi NW 4.6 mph - N/A Fog Fog
2:56 AM 30.9 °F 25.2 °F 30.9 °F 100% 30.17 in 0.5 mi NW 5.8 mph - 0.00 in Fog Light Freezing Fog
3:07 AM 30.9 °F 25.2 °F 30.9 °F 100% 30.11 in 1.2 mi NW 5.8 mph - N/A   Overcast
3:26 AM 30.9 °F 25.2 °F 30.9 °F 100% 30.10 in 0.8 mi NW 5.8 mph - N/A   Mist
3:56 AM 30.9 °F 24.3 °F 30.9 °F 100% 30.17 in 0.5 mi Variable 6.9 mph - N/A Fog Light Freezing Fog
4:06 AM 30.9 °F 24.3 °F 30.9 °F 100% 30.11 in 0.2 mi NNW 6.9 mph - N/A Fog Light Freezing Fog
4:28 AM 32.0 °F 25.6 °F 32.0 °F 100% 30.10 in 0.5 mi NNW 6.9 mph - N/A Fog Fog
4:35 AM 32.0 °F 26.4 °F 32.0 °F 100% 30.11 in 0.5 mi NNW 5.8 mph - N/A Fog Fog
4:48 AM 32.0 °F 27.5 °F 32.0 °F 100% 30.11 in 0.5 mi NNW 4.6 mph - N/A Fog Fog
4:56 AM 32.0 °F 27.5 °F 32.0 °F 100% 30.18 in 0.5 mi NNW 4.6 mph - N/A Fog Fog
5:37 AM 30.9 °F 26.2 °F 30.9 °F 100% 30.10 in 1.5 mi Variable 4.6 mph - N/A   Overcast
5:47 AM 30.9 °F 26.2 °F 30.9 °F 100% 30.10 in 1.5 mi Variable 4.6 mph - N/A   Overcast
5:56 AM 30.9 °F 26.2 °F 30.9 °F 100% 30.17 in 1.5 mi NW 4.6 mph - N/A   Overcast
5:59 AM 30.9 °F 26.2 °F 30.9 °F 100% 30.10 in 0.8 mi WNW 4.6 mph - N/A   Overcast
6:04 AM 30.9 °F 26.2 °F 30.9 °F 100% 30.10 in 0.2 mi Variable 4.6 mph - 0.00 in Fog , Snow Light Snow
6:56 AM 32.0 °F - 32.0 °F 100% 30.18 in 0.5 mi Calm Calm - 0.01 in Fog Fog
7:03 AM 32.0 °F - 32.0 °F 100% 30.11 in 0.2 mi Calm Calm - N/A Fog Fog
7:56 AM 32.0 °F - 32.0 °F 100% 30.21 in 0.2 mi Calm Calm - N/A Fog Fog
8:51 AM 32.0 °F 28.7 °F 32.0 °F 100% 30.22 in 0.5 mi Variable 3.5 mph - N/A Fog Fog
8:54 AM 32.0 °F - 32.0 °F 100% 30.15 in 1.5 mi Calm Calm - N/A   Overcast
8:59 AM 33.1 °F - 32.0 °F 96% 30.15 in 0.8 mi Calm Calm - 0.00 in Snow Light Snow
9:08 AM 33.1 °F - 33.1 °F 100% 30.15 in 0.2 mi Calm Calm - 0.00 in Fog , Snow Light Snow
9:21 AM 32.0 °F - 32.0 °F 100% 30.15 in 0.2 mi Calm Calm - 0.00 in Fog , Snow Snow
9:56 AM 34.0 °F - 34.0 °F 100% 30.23 in 0.2 mi Calm Calm - 0.01 in Fog Fog
10:14 AM 33.1 °F - 33.1 °F 100% 30.16 in 0.5 mi Calm Calm - N/A Fog Fog
10:23 AM 34.0 °F - 34.0 °F 100% 30.16 in 0.2 mi Calm Calm - N/A Fog Fog
10:56 AM 34.0 °F - 34.0 °F 100% 30.24 in 0.2 mi Calm Calm - N/A Fog Fog
11:21 AM 35.1 °F 32.2 °F 35.1 °F 100% 30.16 in 0.5 mi Variable 3.5 mph - N/A Fog Fog
11:29 AM 34.0 °F 31.0 °F 34.0 °F 100% 30.16 in 1.5 mi North 3.5 mph - N/A   Overcast
11:31 AM 35.1 °F 32.2 °F 35.1 °F 100% 30.15 in 3.0 mi North 3.5 mph - N/A   Overcast
11:36 AM 35.1 °F 32.2 °F 35.1 °F 100% 30.15 in 1.8 mi Variable 3.5 mph - N/A   Overcast
11:44 AM 35.1 °F - 35.1 °F 100% 30.15 in 3.0 mi Calm Calm - N/A   Overcast
11:56 AM 35.1 °F 32.2 °F 34.0 °F 96% 30.21 in 9.0 mi Variable 3.5 mph - N/A   Overcast
12:31 PM 34.0 °F 31.0 °F 34.0 °F 100% 30.13 in 5.0 mi NNW 3.5 mph - 0.00 in   Overcast
12:37 PM 34.0 °F - 33.1 °F 96% 30.13 in 1.8 mi Calm Calm - 0.00 in Snow Light Snow
12:53 PM 33.8 °F - 33.8 °F 100% 30.13 in 2.0 mi Calm Calm - 0.00 in   Mostly Cloudy
12:56 PM 34.0 °F - 33.1 °F 96% 30.19 in 2.5 mi Calm Calm - 0.00 in   Mostly Cloudy
1:01 PM 35.1 °F - 34.0 °F 96% 30.13 in 10.0 mi Calm Calm - N/A   Mostly Cloudy
1:13 PM 34.0 °F 31.0 °F 33.1 °F 96% 30.12 in 10.0 mi NNE 3.5 mph - N/A   Mostly Cloudy
1:56 PM 34.0 °F - 34.0 °F 100% 30.19 in 10.0 mi Calm Calm - N/A   Overcast
1:59 PM 35.1 °F - 34.0 °F 96% 30.12 in 10.0 mi Calm Calm - N/A   Overcast
2:10 PM 35.1 °F - 34.0 °F 96% 30.12 in 10.0 mi Calm Calm - N/A   Overcast
2:26 PM 35.1 °F - 35.1 °F 100% 30.12 in 9.0 mi Calm Calm - N/A   Overcast
2:31 PM 35.1 °F 32.2 °F 35.1 °F 100% 30.12 in 1.0 mi Variable 3.5 mph - N/A   Overcast
2:34 PM 35.1 °F 32.2 °F 35.1 °F 100% 30.12 in 0.2 mi Variable 3.5 mph - N/A Fog Fog
2:49 PM 34.0 °F - 34.0 °F 100% 30.12 in 0.5 mi Calm Calm - 0.00 in Fog , Snow Light Snow
2:56 PM 34.0 °F 31.0 °F 34.0 °F 100% 30.19 in 0.2 mi Variable 3.5 mph - 0.00 in Fog Fog
3:14 PM 34.0 °F - 34.0 °F 100% 30.12 in 0.2 mi Calm Calm - 0.01 in Fog Fog
3:20 PM 34.0 °F - 34.0 °F 100% 30.12 in 0.2 mi Calm Calm - 0.01 in Fog Fog
3:29 PM 34.0 °F - 34.0 °F 100% 30.12 in 0.8 mi Calm Calm - 0.01 in   Overcast
3:33 PM 34.0 °F - 34.0 °F 100% 30.12 in 1.5 mi Calm Calm - 0.01 in   Overcast
3:41 PM 34.0 °F - 33.1 °F 96% 30.12 in 3.0 mi Calm Calm - 0.01 in   Overcast
3:49 PM 34.0 °F - 34.0 °F 100% 30.12 in 1.5 mi Calm Calm - 0.01 in   Overcast
3:52 PM 33.8 °F - 33.8 °F 100% 30.11 in 0.8 mi Calm Calm - 0.01 in   Overcast
3:56 PM 34.0 °F - 34.0 °F 100% 30.19 in 0.5 mi Calm Calm - 0.01 in Fog Fog
4:14 PM 34.0 °F - 34.0 °F 100% 30.11 in 0.2 mi Calm Calm - N/A Fog Fog
4:21 PM 34.0 °F - 34.0 °F 100% 30.11 in 0.2 mi Calm Calm - N/A Fog Fog
4:31 PM 34.0 °F - 34.0 °F 100% 30.11 in 0.2 mi Calm Calm - N/A Fog Fog
4:56 PM 34.0 °F - 34.0 °F 100% 30.17 in 0.2 mi Calm Calm - N/A Fog Fog
5:11 PM 34.0 °F - 34.0 °F 100% 30.11 in 0.2 mi Calm Calm - N/A Fog Fog
5:21 PM 34.0 °F - 34.0 °F 100% 30.10 in 0.5 mi Calm Calm - N/A Fog Fog
5:29 PM 34.0 °F 31.0 °F 33.1 °F 96% 30.11 in 0.2 mi NNW 3.5 mph - N/A Fog Fog
5:56 PM 33.1 °F - 33.1 °F 100% 30.18 in 0.5 mi Calm Calm - N/A Fog Fog
6:56 PM 32.0 °F - 32.0 °F 100% 30.19 in 0.5 mi Calm Calm - N/A Fog Fog
7:32 PM 33.1 °F - 33.1 °F 100% 30.11 in 0.2 mi Calm Calm - N/A Fog Fog
7:56 PM 33.1 °F - 33.1 °F 100% 30.19 in 0.2 mi Calm Calm - N/A Fog Fog
8:37 PM 33.1 °F 30.0 °F 33.1 °F 100% 30.12 in 0.2 mi NNW 3.5 mph - N/A Fog Fog
8:45 PM 33.1 °F - 33.1 °F 100% 30.12 in 0.2 mi Calm Calm - N/A Fog Fog
8:56 PM 34.0 °F - 34.0 °F 100% 30.19 in 0.2 mi Calm Calm - N/A Fog Fog
9:10 PM 33.1 °F - 33.1 °F 100% 30.12 in 0.2 mi Calm Calm - N/A Fog Fog
9:17 PM 33.1 °F 30.0 °F 33.1 °F 100% 30.12 in 0.2 mi Variable 3.5 mph - N/A Fog Fog
9:56 PM 33.1 °F - 33.1 °F 100% 30.18 in 0.2 mi Calm Calm - N/A Fog Fog
10:35 PM 32.0 °F 28.7 °F 32.0 °F 100% 30.10 in 0.5 mi North 3.5 mph - N/A Fog Fog
10:44 PM 32.0 °F - 32.0 °F 100% 30.10 in 0.2 mi Calm Calm - N/A Fog Fog
10:56 PM 32.0 °F - 32.0 °F 100% 30.17 in 0.2 mi Calm Calm - N/A Fog Fog